QPF
0.02 0.02 0.03 0.04 0.05 0.07 0.06 0.06 0.06 0.07 0.05 0.04 0.04 0.02 0.02 0.02 0.03 0.02 0.01 0.01 0.01 0.01 0.02 0.03 0.04 0.05 0.07 0.11 0.14 0.17 0.19 0.18 0.20 0.20 0.15 0.11 0.10 0.10 0.07 0.06 0.05 0.04 0.05
0.01 0.01 0.01 0.01 0.02 0.02 0.02 0.03 0.03 0.02 0.02 0.01 0.01 0.01 0.00 0.00 0.00 0.00 0.00 0.00 0.01 0.01 0.02 0.03 0.03 0.04 0.06 0.13 0.17 0.19 0.22 0.21 0.21 0.19 0.15 0.12 0.10 0.09 0.06 0.05 0.05 0.05 0.05
0.01 0.00 0.00 0.00 0.01 0.01 0.01 0.01 0.01 0.01 0.01 0.00 0.00 0.00 0.00 0.00 0.00 0.01 0.00 0.00 0.00 0.01 0.01 0.01 0.02 0.03 0.05 0.09 0.13 0.15 0.18 0.20 0.21 0.19 0.17 0.13 0.09 0.07 0.07 0.06 0.05 0.06 0.06
0.01 0.00 0.00 0.00 0.00 0.00 0.00 0.00 0.00 0.00 0.00 0.00 0.00 0.00 0.00 0.00 0.00 0.00 0.00 0.00 0.00 0.00 0.00 0.01 0.01 0.03 0.08 0.09 0.09 0.13 0.17 0.15 0.17 0.20 0.18 0.14 0.10 0.09 0.07 0.06 0.06 0.05 0.06
0.01 0.00 0.00 0.00 0.00 0.00 0.00 0.00 0.00 0.00 0.00 0.00 0.00 0.00 0.00 0.00 0.00 0.00 0.00 0.00 0.00 0.00 0.01 0.01 0.01 0.02 0.03 0.05 0.07 0.09 0.12 0.13 0.13 0.18 0.22 0.18 0.13 0.08 0.08 0.07 0.07 0.07 0.06
0.01 0.00 0.01 0.00 0.00 0.00 0.00 0.00 0.00 0.00 0.00 0.00 0.00 0.00 0.00 0.00 0.00 0.00 0.00 0.00 0.00 0.00 0.01 0.01 0.01 0.01 0.01 0.03 0.04 0.06 0.08 0.10 0.11 0.11 0.16 0.19 0.17 0.14 0.10 0.08 0.07 0.07 0.07
0.01 0.00 0.00 0.00 0.00 0.00 0.00 0.00 0.00 0.00 0.00 0.00 0.00 0.00 0.00 0.00 0.00 0.00 0.00 0.00 0.00 0.00 0.00 0.00 0.00 0.00 0.00 0.01 0.02 0.03 0.04 0.07 0.09 0.09 0.09 0.12 0.15 0.15 0.13 0.11 0.09 0.08 0.06
0.01 0.00 0.00 0.00 0.00 0.00 0.00 0.00 0.00 0.00 0.00 0.00 0.00 0.00 0.00 0.00 0.00 0.00 0.00 0.00 0.00 0.00 0.00 0.00 0.00 0.00 0.00 0.00 0.00 0.01 0.02 0.03 0.06 0.08 0.08 0.08 0.13 0.17 0.15 0.13 0.13 0.11 0.09
0.00 0.00 0.00 0.00 0.00 0.00 0.00 0.00 0.00 0.00 0.00 0.00 0.00 0.00 0.00 0.00 0.00 0.00 0.00 0.00 0.00 0.00 0.00 0.00 0.00 0.00 0.01 0.01 0.01 0.01 0.01 0.02 0.03 0.04 0.07 0.07 0.09 0.14 0.16 0.15 0.15 0.16 0.14
0.01 0.00 0.00 0.00 0.00 0.00 0.00 0.00 0.00 0.00 0.00 0.00 0.00 0.00 0.00 0.00 0.00 0.00 0.00 0.00 0.00 0.00 0.00 0.00 0.00 0.00 0.01 0.01 0.01 0.01 0.01 0.01 0.02 0.02 0.04 0.05 0.06 0.09 0.12 0.15 0.16 0.15 0.15
0.00 0.00 0.00 0.00 0.00 0.00 0.00 0.00 0.00 0.00 0.00 0.00 0.00 0.00 0.00 0.00 0.00 0.00 0.00 0.00 0.00 0.00 0.00 0.01 0.01 0.01 0.01 0.01 0.01 0.01 0.01 0.01 0.01 0.02 0.03 0.04 0.05 0.06 0.09 0.12 0.15 0.17 0.17
0.00 0.00 0.00 0.00 0.00 0.00 0.00 0.00 0.00 0.00 0.00 0.00 0.00 0.00 0.00 0.00 0.00 0.00 0.00 0.00 0.00 0.00 0.00 0.00 0.01 0.01 0.01 0.02 0.02 0.02 0.02 0.02 0.01 0.02 0.02 0.03 0.04 0.05 0.06 0.09 0.11 0.12 0.14
0.00 0.00 0.00 0.00 0.00 0.00 0.00 0.00 0.00 0.00 0.00 0.00 0.00 0.00 0.00 0.00 0.00 0.00 0.00 0.00 0.00 0.00 0.00 0.00 0.00 0.01 0.01 0.01 0.02 0.03 0.02 0.02 0.02 0.02 0.02 0.02 0.03 0.04 0.05 0.06 0.08 0.09 0.10
0.00 0.00 0.00 0.00 0.00 0.00 0.00 0.00 0.00 0.00 0.00 0.00 0.00 0.00 0.00 0.00 0.00 0.00 0.00 0.00 0.00 0.00 0.00 0.00 0.00 0.00 0.01 0.01 0.02 0.02 0.02 0.03 0.02 0.02 0.02 0.02 0.02 0.02 0.03 0.04 0.06 0.07 0.09
0.00 0.00 0.00 0.00 0.00 0.00 0.00 0.00 0.00 0.00 0.00 0.00 0.00 0.00 0.00 0.00 0.00 0.00 0.00 0.00 0.00 0.00 0.00 0.00 0.00 0.00 0.01 0.01 0.02 0.05 0.04 0.03 0.03 0.03 0.02 0.03 0.04 0.03 0.03 0.03 0.04 0.06 0.08
0.00 0.00 0.00 0.00 0.00 0.00 0.00 0.00 0.00 0.00 0.00 0.00 0.00 0.00 0.00 0.00 0.00 0.00 0.00 0.00 0.00 0.00 0.00 0.00 0.00 0.01 0.01 0.01 0.02 0.04 0.05 0.05 0.04 0.04 0.03 0.02 0.04 0.05 0.04 0.03 0.03 0.05 0.07
0.00 0.00 0.00 0.00 0.00 0.00 0.00 0.00 0.00 0.00 0.00 0.00 0.00 0.00 0.00 0.00 0.00 0.00 0.00 0.00 0.00 0.00 0.00 0.00 0.00 0.01 0.01 0.02 0.03 0.03 0.04 0.04 0.05 0.05 0.04 0.03 0.02 0.04 0.05 0.05 0.04 0.04 0.05
0.00 0.00 0.00 0.00 0.00 0.00 0.00 0.00 0.00 0.00 0.00 0.00 0.00 0.00 0.00 0.00 0.00 0.00 0.00 0.00 0.00 0.01 0.00 0.00 0.01 0.01 0.01 0.03 0.03 0.03 0.03 0.03 0.03 0.04 0.06 0.05 0.03 0.03 0.04 0.05 0.05 0.05 0.04
0.00 0.00 0.00 0.00 0.00 0.00 0.00 0.00 0.00 0.00 0.00 0.00 0.00 0.00 0.00 0.00 0.00 0.00 0.00 0.00 0.00 0.00 0.00 0.01 0.01 0.01 0.02 0.03 0.03 0.03 0.03 0.03 0.03 0.04 0.05 0.06 0.05 0.03 0.04 0.04 0.04 0.04 0.04
0.00 0.00 0.00 0.00 0.00 0.00 0.00 0.00 0.00 0.00 0.00 0.00 0.00 0.00 0.00 0.00 0.00 0.00 0.00 0.00 0.01 0.01 0.01 0.01 0.01 0.02 0.02 0.03 0.04 0.04 0.03 0.03 0.03 0.04 0.05 0.06 0.06 0.05 0.05 0.04 0.03 0.03 0.03
0.00 0.00 0.00 0.00 0.00 0.00 0.00 0.00 0.00 0.00 0.00 0.00 0.00 0.00 0.00 0.00 0.00 0.01 0.01 0.01 0.01 0.01 0.01 0.01 0.01 0.01 0.02 0.02 0.03 0.03 0.03 0.03 0.04 0.04 0.05 0.05 0.05 0.05 0.05 0.04 0.03 0.02 0.02
0.00 0.00 0.00 0.00 0.00 0.00 0.00 0.00 0.00 0.00 0.00 0.00 0.00 0.00 0.00 0.00 0.00 0.00 0.01 0.01 0.01 0.01 0.01 0.01 0.01 0.01 0.02 0.02 0.01 0.01 0.01 0.03 0.04 0.05 0.06 0.06 0.05 0.04 0.05 0.04 0.03 0.02 0.02
0.00 0.00 0.00 0.00 0.00 0.00 0.00 0.00 0.00 0.00 0.00 0.00 0.00 0.00 0.00 0.00 0.01 0.01 0.01 0.01 0.01 0.01 0.01 0.01 0.01 0.02 0.03 0.02 0.01 0.01 0.01 0.02 0.03 0.05 0.06 0.06 0.05 0.04 0.04 0.04 0.03 0.03 0.02
0.00 0.00 0.00 0.00 0.00 0.00 0.00 0.00 0.00 0.00 0.00 0.00 0.00 0.00 0.00 0.00 0.01 0.01 0.01 0.01 0.01 0.01 0.01 0.01 0.01 0.02 0.02 0.02 0.02 0.01 0.01 0.01 0.01 0.03 0.05 0.06 0.05 0.04 0.04 0.03 0.02 0.02 0.01
0.00 0.00 0.00 0.00 0.00 0.00 0.00 0.00 0.00 0.00 0.00 0.00 0.00 0.00 0.00 0.01 0.01 0.01 0.01 0.01 0.01 0.01 0.00 0.00 0.01 0.01 0.01 0.01 0.01 0.02 0.02 0.01 0.01 0.02 0.04 0.05 0.05 0.03 0.02 0.02 0.02 0.01 0.01
0.00 0.00 0.00 0.00 0.00 0.00 0.00 0.00 0.00 0.00 0.00 0.00 0.00 0.00 0.00 0.00 0.01 0.01 0.01 0.01 0.01 0.01 0.00 0.00 0.00 0.00 0.01 0.01 0.01 0.01 0.01 0.02 0.02 0.03 0.04 0.04 0.04 0.03 0.02 0.01 0.01 0.01 0.01
MSLP
1014.04 1013.92 1013.83 1013.74 1013.63 1013.50 1013.34 1013.18 1013.04 1012.96 1012.93 1012.97 1013.06 1013.16 1013.25 1013.30 1013.28 1013.20 1013.08 1012.94 1012.82 1012.76 1012.77 1012.86 1013.01 1013.18 1013.32 1013.38 1013.32 1013.12 1012.77 1012.30 1011.76 1011.20 1010.69 1010.25 1009.94 1009.76 1009.72 1009.79 1009.94 1010.16 1010.43
1014.21 1014.04 1013.91 1013.76 1013.59 1013.39 1013.18 1013.00 1012.88 1012.84 1012.89 1013.01 1013.17 1013.34 1013.46 1013.50 1013.44 1013.30 1013.10 1012.89 1012.72 1012.62 1012.62 1012.72 1012.90 1013.08 1013.24 1013.29 1013.21 1012.97 1012.57 1012.05 1011.46 1010.86 1010.30 1009.85 1009.51 1009.31 1009.25 1009.29 1009.41 1009.60 1009.82
1014.07 1013.90 1013.75 1013.58 1013.37 1013.15 1012.92 1012.74 1012.64 1012.65 1012.76 1012.96 1013.19 1013.41 1013.56 1013.61 1013.53 1013.34 1013.08 1012.81 1012.59 1012.46 1012.44 1012.53 1012.70 1012.89 1013.04 1013.10 1013.00 1012.75 1012.34 1011.82 1011.23 1010.64 1010.09 1009.64 1009.31 1009.10 1009.00 1009.00 1009.07 1009.19 1009.34
1013.73 1013.57 1013.44 1013.29 1013.09 1012.86 1012.64 1012.47 1012.40 1012.44 1012.60 1012.84 1013.13 1013.38 1013.56 1013.60 1013.50 1013.29 1012.99 1012.68 1012.42 1012.25 1012.20 1012.27 1012.42 1012.60 1012.75 1012.80 1012.71 1012.48 1012.10 1011.62 1011.09 1010.55 1010.06 1009.65 1009.33 1009.12 1008.99 1008.93 1008.92 1008.94 1008.99
1013.31 1013.20 1013.12 1013.01 1012.84 1012.64 1012.43 1012.27 1012.20 1012.26 1012.43 1012.69 1012.99 1013.25 1013.43 1013.47 1013.37 1013.14 1012.83 1012.50 1012.21 1012.01 1011.92 1011.96 1012.08 1012.23 1012.36 1012.41 1012.34 1012.15 1011.84 1011.44 1011.00 1010.56 1010.15 1009.81 1009.54 1009.32 1009.16 1009.04 1008.93 1008.84 1008.78
1012.94 1012.90 1012.89 1012.84 1012.72 1012.55 1012.35 1012.19 1012.11 1012.14 1012.29 1012.53 1012.80 1013.05 1013.21 1013.24 1013.14 1012.91 1012.59 1012.25 1011.95 1011.73 1011.62 1011.61 1011.69 1011.81 1011.91 1011.95 1011.91 1011.77 1011.55 1011.26 1010.94 1010.62 1010.33 1010.07 1009.84 1009.64 1009.44 1009.25 1009.05 1008.86 1008.69
1012.73 1012.76 1012.82 1012.83 1012.77 1012.62 1012.44 1012.26 1012.14 1012.12 1012.21 1012.38 1012.59 1012.79 1012.92 1012.94 1012.83 1012.61 1012.31 1011.98 1011.68 1011.44 1011.30 1011.25 1011.28 1011.35 1011.42 1011.45 1011.43 1011.35 1011.21 1011.04 1010.85 1010.66 1010.49 1010.32 1010.15 1009.97 1009.75 1009.50 1009.23 1008.94 1008.67
1012.71 1012.81 1012.93 1013.00 1012.97 1012.85 1012.66 1012.45 1012.28 1012.19 1012.19 1012.27 1012.40 1012.53 1012.61 1012.60 1012.49 1012.28 1012.00 1011.70 1011.40 1011.16 1011.00 1010.90 1010.87 1010.88 1010.91 1010.92 1010.91 1010.87 1010.81 1010.75 1010.69 1010.63 1010.57 1010.50 1010.39 1010.23 1010.01 1009.73 1009.39 1009.04 1008.71
1012.86 1013.01 1013.18 1013.29 1013.28 1013.16 1012.96 1012.71 1012.48 1012.30 1012.21 1012.20 1012.23 1012.29 1012.31 1012.27 1012.16 1011.96 1011.71 1011.43 1011.15 1010.91 1010.72 1010.58 1010.49 1010.44 1010.40 1010.38 1010.36 1010.35 1010.35 1010.37 1010.42 1010.47 1010.52 1010.53 1010.49 1010.37 1010.16 1009.87 1009.51 1009.14 1008.78
1013.13 1013.31 1013.50 1013.61 1013.61 1013.48 1013.25 1012.97 1012.68 1012.43 1012.26 1012.15 1012.10 1012.08 1012.05 1011.97 1011.85 1011.67 1011.44 1011.19 1010.93 1010.68 1010.47 1010.29 1010.14 1010.02 1009.92 1009.84 1009.80 1009.79 1009.83 1009.91 1010.03 1010.17 1010.31 1010.40 1010.42 1010.35 1010.17 1009.90 1009.56 1009.19 1008.85
1013.42 1013.61 1013.78 1013.88 1013.86 1013.71 1013.46 1013.15 1012.82 1012.52 1012.28 1012.11 1011.99 1011.90 1011.82 1011.72 1011.58 1011.41 1011.20 1010.96 1010.72 1010.47 1010.24 1010.02 1009.81 1009.62 1009.46 1009.33 1009.25 1009.22 1009.27 1009.38 1009.55 1009.75 1009.94 1010.10 1010.18 1010.16 1010.03 1009.81 1009.52 1009.20 1008.90
1013.67 1013.83 1013.96 1014.02 1013.96 1013.78 1013.52 1013.19 1012.85 1012.53 1012.26 1012.05 1011.88 1011.74 1011.62 1011.49 1011.34 1011.16 1010.96 1010.74 1010.50 1010.26 1010.00 1009.75 1009.50 1009.25 1009.03 1008.84 1008.71 1008.66 1008.69 1008.80 1008.99 1009.22 1009.46 1009.66 1009.80 1009.84 1009.77 1009.61 1009.39 1009.14 1008.91
1013.83 1013.94 1014.00 1013.99 1013.89 1013.68 1013.40 1013.08 1012.75 1012.44 1012.17 1011.94 1011.75 1011.59 1011.43 1011.27 1011.09 1010.90 1010.70 1010.47 1010.24 1009.99 1009.73 1009.45 1009.17 1008.88 1008.61 1008.37 1008.20 1008.10 1008.10 1008.20 1008.38 1008.62 1008.88 1009.12 1009.30 1009.40 1009.40 1009.32 1009.17 1009.00 1008.85
1013.88 1013.91 1013.90 1013.81 1013.65 1013.41 1013.14 1012.84 1012.54 1012.26 1012.01 1011.79 1011.59 1011.41 1011.22 1011.02 1010.81 1010.60 1010.37 1010.14 1009.90 1009.65 1009.39 1009.10 1008.80 1008.49 1008.18 1007.91 1007.69 1007.55 1007.51 1007.58 1007.74 1007.97 1008.24 1008.50 1008.72 1008.88 1008.95 1008.95 1008.88 1008.79 1008.71
1013.84 1013.78 1013.67 1013.50 1013.28 1013.03 1012.76 1012.49 1012.24 1012.01 1011.80 1011.60 1011.40 1011.19 1010.96 1010.73 1010.47 1010.22 1009.97 1009.72 1009.47 1009.22 1008.96 1008.68 1008.37 1008.05 1007.73 1007.42 1007.17 1006.99 1006.91 1006.94 1007.07 1007.28 1007.54 1007.81 1008.07 1008.28 1008.42 1008.49 1008.51 1008.50 1008.49
1013.71 1013.55 1013.35 1013.11 1012.85 1012.58 1012.33 1012.10 1011.90 1011.72 1011.55 1011.37 1011.17 1010.93 1010.67 1010.38 1010.07 1009.77 1009.48 1009.20 1008.94 1008.69 1008.43 1008.16 1007.87 1007.55 1007.22 1006.90 1006.62 1006.40 1006.28 1006.26 1006.35 1006.53 1006.78 1007.07 1007.36 1007.62 1007.82 1007.98 1008.08 1008.14 1008.19
1013.51 1013.27 1013.00 1012.70 1012.40 1012.14 1011.91 1011.72 1011.57 1011.44 1011.30 1011.13 1010.91 1010.65 1010.33 1009.98 1009.61 1009.25 1008.91 1008.61 1008.33 1008.08 1007.83 1007.57 1007.29 1006.98 1006.66 1006.33 1006.02 1005.77 1005.61 1005.55 1005.59 1005.74 1005.98 1006.27 1006.58 1006.89 1007.17 1007.40 1007.58 1007.72 1007.83
1013.25 1012.96 1012.63 1012.30 1012.00 1011.74 1011.55 1011.40 1011.30 1011.19 1011.07 1010.90 1010.66 1010.34 1009.97 1009.55 1009.12 1008.69 1008.30 1007.96 1007.67 1007.41 1007.17 1006.92 1006.66 1006.36 1006.04 1005.71 1005.38 1005.10 1004.89 1004.79 1004.80 1004.91 1005.13 1005.43 1005.77 1006.13 1006.47 1006.78 1007.05 1007.26 1007.44
1012.94 1012.62 1012.27 1011.94 1011.66 1011.43 1011.27 1011.16 1011.08 1011.00 1010.87 1010.68 1010.40 1010.04 1009.60 1009.11 1008.61 1008.13 1007.69 1007.31 1006.99 1006.73 1006.49 1006.25 1006.00 1005.71 1005.39 1005.05 1004.71 1004.40 1004.16 1004.02 1003.99 1004.08 1004.28 1004.59 1004.96 1005.36 1005.77 1006.16 1006.50 1006.80 1007.04
1012.57 1012.26 1011.94 1011.64 1011.39 1011.20 1011.07 1010.99 1010.93 1010.85 1010.71 1010.48 1010.16 1009.73 1009.23 1008.68 1008.11 1007.58 1007.09 1006.68 1006.34 1006.07 1005.83 1005.60 1005.35 1005.07 1004.75 1004.40 1004.05 1003.71 1003.45 1003.27 1003.21 1003.29 1003.48 1003.79 1004.19 1004.64 1005.10 1005.56 1005.98 1006.35 1006.66
1012.18 1011.91 1011.63 1011.38 1011.18 1011.03 1010.94 1010.89 1010.83 1010.73 1010.56 1010.28 1009.90 1009.42 1008.86 1008.25 1007.63 1007.05 1006.53 1006.09 1005.74 1005.45 1005.20 1004.97 1004.73 1004.45 1004.13 1003.78 1003.43 1003.09 1002.80 1002.61 1002.54 1002.60 1002.79 1003.10 1003.52 1004.00 1004.51 1005.02 1005.50 1005.93 1006.30
1011.78 1011.57 1011.36 1011.17 1011.02 1010.92 1010.86 1010.81 1010.73 1010.60 1010.39 1010.07 1009.63 1009.09 1008.48 1007.82 1007.17 1006.56 1006.01 1005.55 1005.18 1004.89 1004.64 1004.40 1004.16 1003.89 1003.58 1003.24 1002.89 1002.56 1002.28 1002.09 1002.01 1002.06 1002.25 1002.57 1002.99 1003.48 1004.02 1004.57 1005.09 1005.56 1005.97
1011.39 1011.26 1011.13 1011.00 1010.91 1010.84 1010.79 1010.73 1010.62 1010.45 1010.19 1009.81 1009.32 1008.73 1008.08 1007.39 1006.71 1006.08 1005.52 1005.06 1004.68 1004.38 1004.12 1003.89 1003.66 1003.40 1003.11 1002.79 1002.46 1002.15 1001.90 1001.72 1001.66 1001.72 1001.91 1002.22 1002.63 1003.12 1003.66 1004.20 1004.73 1005.22 1005.65
1011.06 1011.00 1010.94 1010.87 1010.81 1010.76 1010.71 1010.62 1010.48 1010.25 1009.93 1009.49 1008.95 1008.33 1007.64 1006.94 1006.25 1005.62 1005.06 1004.60 1004.22 1003.91 1003.66 1003.44 1003.21 1002.97 1002.71 1002.43 1002.15 1001.88 1001.67 1001.53 1001.49 1001.57 1001.75 1002.05 1002.45 1002.91 1003.41 1003.93 1004.44 1004.91 1005.33
1010.78 1010.79 1010.78 1010.75 1010.72 1010.68 1010.60 1010.48 1010.28 1010.00 1009.62 1009.13 1008.55 1007.89 1007.20 1006.49 1005.80 1005.18 1004.63 1004.17 1003.79 1003.49 1003.25 1003.03 1002.83 1002.62 1002.39 1002.16 1001.94 1001.73 1001.57 1001.48 1001.48 1001.57 1001.76 1002.04 1002.40 1002.82 1003.27 1003.73 1004.19 1004.62 1005.01
1010.54 1010.60 1010.63 1010.64 1010.61 1010.56 1010.45 1010.28 1010.04 1009.70 1009.26 1008.73 1008.12 1007.45 1006.74 1006.04 1005.38 1004.77 1004.23 1003.79 1003.42 1003.13 1002.89 1002.69 1002.50 1002.32 1002.14 1001.96 1001.80 1001.66 1001.56 1001.52 1001.55 1001.66 1001.85 1002.11 1002.43 1002.79 1003.18 1003.57 1003.96 1004.34 1004.69
Thickness
5746 5748 5748 5747 5746 5744 5743 5741 5739 5737 5736 5733 5729 5726 5723 5722 5721 5719 5717 5715 5713 5712 5711 5709 5709 5708 5708 5708 5708 5707 5707 5707 5708 5706 5707 5711 5716 5718 5722 5725 5727 5729 5730
5739 5741 5741 5741 5740 5738 5736 5734 5732 5730 5728 5725 5722 5719 5716 5713 5711 5710 5709 5707 5706 5704 5704 5702 5701 5701 5701 5701 5701 5701 5701 5703 5704 5701 5698 5699 5704 5712 5720 5722 5725 5728 5729
5735 5736 5736 5735 5735 5733 5731 5729 5726 5723 5721 5719 5715 5711 5706 5703 5700 5699 5698 5698 5698 5696 5695 5695 5694 5693 5693 5693 5694 5696 5695 5695 5697 5698 5695 5692 5694 5703 5712 5718 5722 5725 5726
5736 5734 5734 5733 5731 5730 5728 5725 5721 5718 5715 5712 5706 5701 5694 5690 5689 5688 5688 5688 5688 5688 5687 5686 5685 5685 5685 5685 5686 5688 5688 5689 5689 5691 5693 5694 5695 5695 5699 5708 5715 5720 5722
5734 5733 5733 5731 5730 5729 5725 5721 5717 5713 5709 5705 5700 5694 5689 5685 5682 5681 5679 5678 5678 5678 5678 5677 5676 5675 5675 5676 5677 5678 5680 5681 5682 5684 5685 5687 5690 5693 5693 5695 5703 5709 5716
5733 5732 5732 5730 5727 5725 5721 5716 5710 5706 5702 5698 5693 5688 5683 5678 5674 5671 5669 5667 5667 5667 5667 5667 5666 5666 5666 5666 5667 5668 5670 5672 5674 5676 5678 5679 5681 5684 5687 5690 5693 5698 5706
5729 5728 5726 5723 5720 5717 5713 5709 5703 5697 5694 5690 5685 5680 5675 5671 5666 5663 5660 5657 5656 5655 5656 5656 5656 5656 5656 5657 5658 5658 5660 5662 5664 5666 5670 5673 5675 5678 5681 5683 5685 5689 5696
5726 5724 5721 5717 5713 5710 5705 5699 5693 5688 5685 5680 5676 5671 5667 5662 5658 5655 5652 5649 5647 5647 5647 5647 5647 5647 5647 5647 5648 5648 5650 5651 5654 5657 5660 5663 5667 5670 5673 5676 5678 5679 5684
5721 5718 5714 5711 5706 5701 5696 5691 5685 5680 5676 5671 5666 5662 5658 5653 5649 5647 5644 5641 5639 5639 5638 5637 5637 5637 5637 5637 5637 5638 5639 5641 5643 5646 5649 5653 5657 5662 5665 5669 5673 5673 5674
5714 5711 5708 5704 5699 5694 5688 5683 5678 5672 5666 5662 5657 5654 5649 5645 5641 5638 5634 5632 5630 5629 5628 5627 5626 5626 5626 5627 5627 5627 5629 5630 5632 5634 5638 5642 5646 5651 5656 5660 5664 5668 5671
5708 5705 5701 5697 5692 5686 5681 5675 5669 5663 5658 5653 5649 5644 5640 5637 5633 5629 5626 5623 5621 5619 5617 5616 5615 5615 5615 5616 5616 5617 5618 5620 5622 5624 5627 5630 5635 5640 5645 5649 5654 5659 5663
5704 5699 5695 5690 5684 5679 5674 5668 5662 5657 5651 5646 5641 5636 5632 5628 5624 5620 5617 5614 5611 5609 5607 5605 5604 5603 5603 5604 5604 5605 5608 5609 5611 5613 5616 5620 5624 5628 5633 5638 5643 5648 5653
5698 5692 5688 5683 5678 5673 5667 5661 5655 5649 5644 5639 5633 5628 5623 5619 5615 5612 5608 5605 5601 5599 5596 5594 5593 5592 5591 5591 5592 5593 5595 5597 5600 5603 5605 5609 5612 5616 5621 5626 5631 5637 5643
5691 5687 5681 5676 5672 5666 5660 5654 5648 5643 5637 5631 5625 5620 5616 5611 5607 5603 5599 5595 5592 5588 5586 5583 5582 5580 5580 5579 5580 5580 5582 5584 5587 5591 5594 5598 5601 5605 5609 5614 5620 5625 5631
5688 5683 5676 5671 5665 5659 5653 5647 5641 5635 5630 5624 5618 5613 5609 5604 5599 5594 5590 5586 5581 5579 5575 5572 5570 5568 5567 5567 5567 5567 5568 5570 5572 5576 5580 5585 5590 5595 5599 5604 5608 5613 5619
5684 5680 5674 5667 5660 5653 5647 5641 5634 5629 5623 5617 5611 5607 5601 5596 5591 5586 5581 5576 5571 5568 5564 5561 5558 5556 5556 5556 5555 5553 5553 5555 5557 5561 5566 5571 5577 5583 5588 5593 5598 5604 5609
5681 5676 5669 5661 5654 5648 5642 5635 5629 5623 5616 5610 5605 5600 5594 5589 5583 5578 5573 5567 5562 5558 5554 5551 5548 5546 5544 5543 5542 5541 5540 5540 5543 5546 5551 5557 5565 5569 5574 5580 5586 5592 5599
5678 5671 5663 5656 5650 5643 5636 5630 5623 5617 5611 5604 5599 5593 5588 5582 5577 5571 5565 5560 5554 5550 5546 5543 5540 5537 5535 5533 5531 5529 5528 5528 5530 5534 5538 5543 5549 5556 5560 5565 5571 5578 5586
5675 5667 5660 5653 5646 5639 5632 5625 5618 5611 5605 5599 5593 5588 5582 5576 5571 5565 5559 5554 5549 5544 5540 5537 5533 5530 5527 5525 5522 5520 5517 5518 5520 5523 5528 5532 5538 5545 5549 5553 5558 5564 5571
5671 5664 5657 5649 5641 5635 5628 5620 5612 5605 5599 5594 5588 5583 5577 5571 5565 5560 5554 5549 5544 5540 5536 5532 5528 5524 5521 5518 5515 5512 5509 5509 5511 5514 5519 5524 5529 5534 5537 5542 5547 5552 5559
5669 5662 5653 5644 5637 5631 5623 5614 5607 5600 5595 5590 5584 5578 5572 5566 5562 5556 5551 5545 5540 5536 5531 5527 5524 5519 5516 5513 5510 5507 5504 5504 5504 5507 5511 5516 5521 5524 5529 5534 5539 5546 5550
5666 5658 5648 5639 5633 5626 5618 5610 5603 5597 5591 5585 5579 5573 5568 5563 5560 5552 5547 5542 5536 5531 5526 5521 5517 5514 5511 5508 5506 5504 5501 5501 5500 5502 5505 5510 5514 5518 5522 5527 5532 5537 5541
5660 5652 5644 5635 5628 5621 5614 5605 5599 5593 5586 5580 5574 5569 5564 5559 5554 5548 5543 5538 5532 5526 5521 5516 5512 5509 5506 5504 5502 5501 5499 5498 5497 5499 5502 5506 5510 5512 5516 5521 5525 5529 5532
5655 5647 5639 5631 5623 5617 5610 5602 5596 5589 5582 5575 5570 5566 5560 5556 5552 5546 5541 5535 5529 5523 5517 5512 5508 5505 5502 5499 5497 5496 5495 5495 5495 5496 5499 5502 5505 5508 5512 5515 5519 5524 5528
5651 5643 5635 5627 5620 5613 5606 5599 5592 5585 5578 5572 5567 5562 5557 5553 5549 5544 5539 5533 5528 5520 5515 5510 5505 5501 5499 5497 5494 5493 5493 5492 5493 5493 5495 5497 5500 5503 5506 5510 5514 5518 5522
5647 5639 5631 5624 5617 5610 5603 5596 5589 5582 5575 5569 5564 5560 5555 5551 5547 5542 5538 5533 5527 5522 5516 5510 5505 5501 5498 5496 5495 5494 5493 5492 5492 5493 5494 5496 5499 5503 5506 5509 5512 5515 5519